GFSSE_prec_cthk_072.txt.gz
RH
63 69 70 70 61 80 73 68 60 58 57 58 56 48 36 30 27 24 21 20 26 30 30 28 24 19 18 19 20 20 21 18 19 22 24 24 22 21 18 19 20 23 21
72 72 70 73 68 77 80 76 67 61 63 59 54 47 35 29 27 26 25 27 29 28 27 23 19 19 21 24 26 24 22 19 17 17 18 23 23 21 21 22 21 24 24
77 77 74 74 70 73 83 82 71 65 66 60 51 45 37 32 30 30 30 31 30 28 23 22 22 24 25 26 26 28 22 21 19 17 17 18 20 23 20 18 22 23 24
78 85 82 77 73 63 81 91 81 74 69 57 45 44 38 39 33 33 33 31 28 26 25 24 25 26 26 26 28 26 24 24 22 19 17 17 17 18 16 16 23 24 24
75 79 85 78 74 65 71 87 89 79 73 58 43 44 45 44 38 34 33 29 27 26 26 27 29 29 29 30 30 29 27 22 21 19 17 16 15 15 15 16 20 22 22
57 77 79 79 76 67 70 81 96 86 79 57 46 47 46 43 39 37 33 32 30 27 26 29 32 30 33 34 34 33 32 28 22 19 16 15 15 15 14 14 13 11 13
63 67 83 79 65 78 88 91 96 92 82 60 44 48 47 46 41 37 37 35 34 31 30 32 35 35 34 37 37 36 34 31 24 20 17 16 15 15 16 15 12 12 11
66 68 89 90 93 90 97 94 96 92 79 67 68 55 49 48 42 41 40 39 37 36 35 37 38 38 38 39 42 40 37 33 29 22 20 18 17 17 15 13 11 11 12
75 75 84 90 89 87 87 89 95 96 79 66 53 52 49 47 44 46 46 45 43 42 40 39 43 47 44 42 44 43 37 31 29 25 21 18 16 14 12 13 12 12 11
75 75 80 85 77 84 80 91 99 97 90 73 65 62 52 48 49 50 51 51 50 48 46 45 46 52 50 46 43 45 39 32 26 21 18 17 17 16 14 13 12 13 13
78 78 84 86 82 83 80 81 90 91 91 80 70 59 57 51 54 56 56 56 58 56 51 49 52 55 52 45 44 44 38 33 27 23 21 21 20 16 15 15 15 16 17
78 80 85 86 82 82 85 82 90 92 89 83 76 67 60 57 59 56 61 61 63 63 58 56 58 58 50 42 39 39 36 33 27 24 23 21 17 16 16 16 16 18 19
77 81 80 82 81 82 85 87 91 89 91 87 85 81 66 65 63 66 64 64 67 68 68 70 65 53 44 37 34 35 32 29 28 22 20 18 19 19 19 19 20 21 21
75 74 75 79 84 87 88 90 89 90 88 90 87 84 75 68 66 61 62 67 69 71 73 70 60 49 40 36 32 31 27 25 23 20 20 20 21 23 25 24 23 23 23
75 77 77 83 86 87 88 89 88 88 93 89 85 81 72 62 61 61 63 69 72 74 72 65 60 53 40 35 32 29 25 23 22 24 26 26 26 26 27 27 28 27 26
76 79 77 83 84 84 87 86 87 84 85 84 80 73 67 63 65 64 67 69 72 72 70 69 66 57 46 35 34 28 27 26 28 30 32 33 34 33 32 31 32 31 29
80 82 90 93 88 85 88 90 91 90 83 76 73 73 71 70 69 66 66 68 70 70 74 75 66 54 43 36 30 29 28 28 31 32 34 36 37 37 39 37 37 36 37
83 92 93 92 91 92 94 90 83 84 80 77 76 74 74 72 69 69 64 63 70 71 79 78 72 55 42 39 32 29 30 30 35 36 40 43 41 40 42 44 43 42 42
77 91 93 95 92 92 87 85 83 80 80 76 73 73 72 72 67 65 62 62 68 73 78 79 75 61 51 44 38 35 32 37 42 43 42 44 44 45 49 52 49 47 49
66 87 92 90 89 90 86 84 84 80 79 73 71 71 71 68 63 60 57 58 68 71 79 78 73 65 59 52 47 44 43 47 46 48 50 49 51 55 59 59 57 57 56
51 68 75 81 81 84 83 83 80 72 68 66 64 63 63 61 60 59 60 62 66 72 72 72 70 65 61 62 57 56 57 58 58 61 63 65 64 66 70 69 69 67 65
44 49 55 56 56 58 61 60 61 59 58 56 54 53 51 50 50 52 55 61 61 64 70 75 76 73 75 76 74 75 75 74 79 77 75 72 72 70 71 70 69 67 62
35 39 37 39 40 43 44 45 47 51 49 46 44 48 47 48 48 46 50 53 59 61 67 74 77 77 81 84 86 86 85 87 88 86 88 88 85 80 76 75 72 70 67
28 31 33 32 34 35 35 37 38 40 40 41 44 45 50 49 46 47 51 53 59 63 67 74 76 79 87 91 89 91 91 95 93 93 93 90 88 90 85 79 74 65 65
25 24 26 29 30 32 34 34 38 40 38 39 41 45 49 50 54 54 60 67 73 76 78 76 80 84 92 91 91 94 95 97 91 94 94 95 91 91 87 80 75 68 67
32 29 29 30 31 32 33 35 36 38 40 42 40 42 50 49 54 61 67 74 75 68 72 74 75 82 82 84 85 84 84 82 89 91 94 91 89 93 88 76 74 74 76

GFSSE_prec_cthk_075.txt.gz
RH
71 72 71 67 69 69 64 61 58 74 63 64 70 64 60 52 42 34 29 27 29 32 31 29 25 19 17 17 16 16 18 21 25 26 24 24 24 24 23 22 22 24 25
63 61 61 61 60 63 66 69 61 70 74 65 59 58 54 46 35 30 27 30 33 32 28 27 21 19 20 20 19 18 17 17 19 25 25 25 25 25 23 26 25 26 26
65 68 69 67 72 74 64 66 68 67 70 64 61 53 53 43 34 32 31 36 34 30 26 23 28 27 24 27 22 21 19 18 18 20 21 24 26 26 26 26 25 24 24
61 70 80 80 91 83 82 72 68 70 72 66 62 55 44 43 36 36 36 34 32 27 23 23 24 26 26 25 25 25 22 19 20 20 19 19 24 26 24 25 25 25 24
60 71 76 70 97 92 94 92 81 67 82 74 64 50 40 50 41 42 37 32 28 26 28 28 30 29 29 28 27 23 22 22 22 21 18 18 18 23 24 24 23 23 21
60 67 72 75 67 77 92 88 81 69 84 90 66 47 42 51 51 43 38 31 29 30 30 28 31 31 32 32 32 28 25 23 21 20 17 15 17 23 20 17 17 14 15
58 65 67 73 68 74 80 82 79 80 75 96 69 44 49 44 47 43 39 33 32 33 34 34 35 35 36 35 34 34 29 26 22 20 16 15 18 21 18 15 14 14 12
69 67 68 70 79 80 84 85 85 92 88 97 60 48 50 55 47 45 41 36 34 37 38 38 40 39 40 38 36 36 33 28 27 20 18 16 17 19 16 15 14 12 11
79 78 75 73 78 82 83 85 89 92 97 96 69 46 48 48 49 47 41 39 40 41 43 40 42 43 44 43 40 37 38 32 24 21 19 18 18 17 15 14 14 12 12
80 79 79 77 83 84 88 92 89 97 98 90 74 63 54 64 55 46 44 43 41 46 46 45 46 46 45 49 47 45 39 33 23 21 20 20 18 16 15 13 13 14 14
81 82 82 83 83 81 87 91 91 99 98 93 88 78 67 56 49 49 49 45 44 46 49 49 50 48 45 52 48 45 41 37 25 20 19 19 19 18 15 15 15 16 16
73 80 81 83 83 85 88 89 88 93 95 97 91 65 50 50 53 54 53 50 49 50 51 53 54 51 48 54 52 46 42 33 28 24 23 22 20 19 16 16 17 18 19
65 77 83 80 82 84 85 87 93 94 96 94 83 53 51 55 58 60 58 58 57 59 60 58 57 53 59 54 46 42 36 32 30 27 22 19 20 19 19 19 19 19 20
62 66 79 79 78 81 84 89 95 96 96 96 86 64 65 65 64 66 66 67 68 67 64 62 58 57 53 45 37 33 32 30 27 24 23 20 22 23 23 23 23 23 23
64 66 73 74 74 79 85 89 92 95 94 96 88 69 68 70 74 75 77 73 69 67 68 65 60 53 46 40 34 31 30 26 25 24 25 26 27 26 28 28 28 29 27
67 70 73 75 74 79 86 87 88 92 93 92 90 80 74 74 77 75 72 71 69 68 69 68 62 55 47 40 34 32 28 25 25 27 29 33 34 33 33 34 35 35 34
76 72 74 76 77 82 84 88 91 89 92 92 90 86 81 74 68 70 70 71 70 70 71 67 65 63 49 40 36 38 34 27 28 29 33 34 37 37 37 38 38 37 36
76 78 80 84 93 90 89 92 96 95 91 90 87 85 78 72 71 69 68 71 72 72 71 73 72 66 54 46 35 31 31 29 30 34 36 40 41 41 40 42 43 43 42
70 80 80 84 85 89 94 96 98 95 91 88 83 81 74 72 70 69 68 66 67 72 74 79 80 77 68 53 43 37 33 31 35 40 43 44 47 48 46 47 50 53 54
67 79 84 84 94 99 96 94 96 94 89 87 81 78 74 73 72 70 67 62 64 69 74 79 85 85 79 66 58 53 48 45 48 47 50 53 55 59 60 61 62 65 65
60 80 85 89 93 94 97 96 97 94 88 82 78 80 75 71 66 62 65 65 64 66 75 81 84 83 81 73 70 66 62 61 58 61 65 66 68 70 69 69 72 72 70
46 59 72 79 89 92 95 94 94 90 87 79 77 68 66 63 63 63 64 63 68 68 73 75 79 83 83 78 77 76 73 73 73 78 82 82 80 81 83 83 82 81 79
39 43 47 52 59 74 84 83 79 75 75 71 64 60 62 60 61 63 61 61 65 66 67 66 74 79 81 81 80 79 77 75 83 81 81 82 81 83 84 86 86 87 84
32 36 38 42 45 52 56 58 60 59 60 54 52 50 50 53 55 54 57 55 59 59 64 63 69 76 83 83 85 86 83 81 82 81 85 84 81 84 83 82 82 83 81
26 28 32 36 38 42 47 45 47 47 48 48 49 47 51 53 51 51 52 51 55 60 65 72 81 82 89 84 87 88 77 80 78 82 76 75 81 83 86 82 80 78 73
29 27 26 29 31 34 37 41 44 43 44 42 42 45 50 55 57 56 60 59 63 72 79 77 79 85 85 83 86 83 83 77 85 65 71 76 81 83 83 76 77 76 73

GFSSE_prec_cthk_081.txt.gz
RH
56 58 62 67 69 66 69 64 64 63 66 66 69 74 72 70 66 56 42 32 34 34 34 33 30 27 29 28 28 27 25 25 25 25 24 25 25 28 28 29 30 30 30
49 57 67 67 70 68 66 66 63 64 66 62 65 71 75 71 66 59 44 38 38 38 35 31 28 27 29 25 28 32 30 28 28 25 25 24 25 23 27 27 29 28 28
53 56 64 72 72 67 64 61 62 65 66 61 63 66 70 74 64 59 45 36 38 36 34 29 27 30 31 27 25 24 24 25 26 26 32 34 31 27 28 26 24 23 20
56 60 67 68 67 64 66 64 62 67 77 71 65 70 70 77 64 56 43 35 37 40 38 27 28 24 25 24 22 20 20 23 22 26 30 33 31 28 28 25 23 21 18
55 56 59 77 80 73 78 77 76 78 93 91 77 73 75 70 69 60 46 38 39 43 37 31 26 24 22 21 20 21 22 23 24 28 30 30 30 29 26 23 22 19 21
56 63 61 68 78 79 73 74 83 79 70 92 83 75 70 68 62 58 52 43 39 43 39 34 31 27 24 22 21 22 23 23 26 31 31 31 30 28 24 23 19 18 16
55 62 75 84 77 79 71 79 82 73 81 98 93 74 64 58 60 54 55 43 39 39 38 38 33 29 26 24 24 24 23 24 24 28 31 30 27 27 26 23 19 17 14
53 61 74 83 85 85 78 75 75 77 82 85 90 85 67 62 57 54 59 45 38 34 38 38 37 36 33 32 32 29 26 24 26 30 30 28 30 27 22 20 17 16 13
54 57 76 86 87 86 82 75 73 75 89 89 86 88 76 65 65 57 57 44 37 38 40 41 42 41 40 36 34 34 31 28 30 32 30 32 25 23 20 18 16 16 13
54 53 70 87 91 91 87 86 85 89 88 88 98 96 86 72 70 64 57 46 41 42 45 47 47 46 44 43 40 36 32 30 32 32 35 36 31 25 20 19 18 16 15
50 53 63 83 90 90 89 94 90 90 94 97 98 97 91 79 73 56 58 46 44 45 51 53 52 51 47 49 42 38 35 35 38 39 37 36 27 25 22 20 18 16 16
45 51 59 73 89 92 97 95 90 91 95 98 98 96 92 82 69 54 55 46 47 51 55 58 56 55 52 49 44 45 39 41 45 37 34 29 26 23 21 19 18 19 17
43 49 57 67 84 91 93 91 95 94 90 98 99 97 92 83 67 58 60 61 54 58 60 59 57 56 57 52 51 51 47 48 47 39 36 29 24 22 21 22 23 23 20
43 56 63 64 78 91 92 94 93 91 93 99 99 95 89 79 64 52 61 55 56 59 62 59 56 58 56 57 54 52 52 49 45 41 35 31 27 27 27 26 25 24 24
46 62 67 65 73 83 88 84 89 92 98 98 97 92 79 65 56 53 56 62 62 65 67 66 61 62 62 56 53 51 49 42 40 38 32 31 32 32 32 28 27 28 29
47 58 68 66 71 77 79 83 92 92 97 96 95 81 68 64 59 58 65 69 68 71 72 70 66 64 60 57 52 48 44 38 34 33 33 36 37 36 34 33 33 33 33
48 55 72 70 71 74 81 87 94 98 98 95 90 79 72 70 67 73 76 73 78 79 75 73 67 64 61 55 49 46 41 37 35 33 38 39 36 35 39 38 37 35 35
46 55 69 77 76 75 79 90 95 96 96 93 88 82 77 80 81 80 83 85 84 80 77 74 72 66 65 57 47 42 40 38 35 32 35 33 36 44 43 43 43 44 45
47 57 67 81 81 75 78 89 95 98 97 92 90 89 87 84 84 85 83 84 82 84 85 83 83 80 76 67 55 46 42 37 41 46 45 39 39 41 44 47 48 49 52
46 57 76 82 82 81 89 93 96 98 95 91 87 89 89 84 79 80 79 81 88 89 88 87 86 85 87 86 81 69 63 57 53 54 50 48 52 54 51 53 58 64 67
45 58 80 87 89 92 96 97 98 99 94 93 87 89 86 84 79 83 82 89 92 92 88 90 89 87 86 89 89 84 75 69 64 60 56 57 58 59 57 62 70 73 74
45 56 82 89 94 96 96 97 98 98 95 96 91 91 87 82 82 82 83 82 80 81 81 85 84 87 85 85 84 85 81 75 73 71 67 69 70 71 73 77 77 81 82
39 48 68 84 91 95 97 96 98 99 98 96 90 92 89 85 81 81 79 77 74 76 73 75 75 76 79 78 80 85 85 83 80 76 75 76 70 71 77 83 83 89 83
35 40 54 62 75 89 97 98 98 97 97 96 92 92 90 85 83 79 77 74 74 72 72 72 73 73 71 68 71 75 80 86 90 88 86 88 88 77 75 72 72 71 68
32 35 41 50 62 69 89 95 96 98 97 95 93 90 88 83 75 70 70 68 70 71 71 70 70 70 67 68 63 68 77 85 86 89 85 89 89 79 75 68 76 72 62
29 30 34 39 47 55 63 74 80 81 81 83 82 75 74 69 65 66 64 63 64 66 65 63 66 65 63 61 65 77 80 87 90 91 86 80 90 81 85 69 63 64 64

GFSSE_prec_cthk_087.txt.gz
RH
31 32 37 45 51 48 49 53 55 58 59 57 55 62 62 63 58 52 45 32 27 25 24 29 27 26 26 25 24 24 26 29 33 37 38 32 33 34 36 36 38 37 36
27 33 33 41 50 54 58 59 61 59 60 57 56 60 63 66 62 60 53 44 32 37 37 30 32 28 26 25 25 25 28 31 32 32 32 32 33 34 34 33 33 32 31
25 32 35 40 47 59 58 61 68 64 63 62 61 64 69 70 67 66 59 60 46 45 38 28 27 26 27 25 26 27 28 28 27 32 32 31 33 32 31 30 32 31 28
25 32 38 40 47 55 56 67 80 75 69 68 66 70 74 70 70 69 66 70 61 44 35 30 26 28 25 27 30 30 29 31 32 34 31 32 33 31 28 28 27 24 21
28 34 41 45 52 64 67 70 78 83 88 83 72 71 75 75 68 81 75 67 53 43 39 30 24 22 25 29 31 32 34 34 36 39 39 36 33 30 27 24 21 20 17
35 40 43 50 54 59 71 87 78 87 98 98 93 87 72 78 74 75 79 69 61 48 40 27 25 24 25 28 30 32 34 35 42 47 38 34 30 29 25 21 19 17 15
31 39 41 45 49 54 66 72 71 77 89 90 92 98 86 89 89 75 72 69 56 47 40 27 22 24 24 26 28 31 33 38 44 38 38 32 29 27 24 18 16 16 13
31 37 39 42 44 48 60 78 78 78 93 84 88 92 86 90 96 93 78 71 53 46 30 25 23 24 25 25 28 32 35 39 46 43 38 31 31 29 22 17 18 14 13
31 35 36 41 43 46 61 82 84 80 82 93 87 95 85 94 90 85 85 67 54 43 31 27 24 25 27 29 32 34 37 44 50 42 39 32 32 29 22 19 18 15 16
34 36 37 37 44 48 62 75 84 80 93 94 88 92 87 98 91 82 69 71 64 40 31 28 28 28 31 32 33 35 40 45 48 43 41 33 33 33 27 23 19 20 19
35 38 34 33 41 47 64 67 83 85 90 96 98 95 96 97 95 81 71 74 66 41 34 33 32 33 34 35 35 40 46 54 54 47 38 37 41 38 30 26 26 22 21
47 44 35 33 37 46 64 73 85 87 89 96 96 97 91 98 96 88 73 79 66 48 40 38 37 38 40 38 41 48 56 59 57 50 41 42 41 41 35 31 28 25 23
51 40 30 31 35 45 59 73 87 89 92 95 91 94 96 98 97 90 84 72 69 55 44 42 42 44 47 45 47 54 55 58 59 52 44 45 46 39 32 30 28 27 23
51 36 29 33 40 58 57 68 88 90 91 91 93 97 98 99 97 93 86 73 70 63 51 48 49 57 50 49 54 56 56 61 63 53 48 46 49 40 35 31 30 25 24
52 37 33 36 46 64 67 64 86 87 93 92 94 99 96 98 97 94 85 80 74 65 60 61 67 57 56 56 58 56 59 63 64 56 48 45 46 42 39 35 33 33 33
50 38 36 38 46 61 61 65 78 89 92 89 93 93 98 97 96 94 87 81 82 72 68 71 68 59 59 60 57 61 61 63 60 55 49 46 47 46 44 43 40 37 36
50 44 36 39 46 56 62 62 72 84 81 84 88 89 93 97 96 92 88 85 79 73 73 80 69 64 63 61 60 60 62 61 57 52 45 46 42 46 45 43 42 40 35
45 38 39 40 47 56 64 64 69 74 75 81 89 91 92 93 91 89 89 85 84 78 78 76 72 70 66 64 63 64 63 58 54 50 48 47 47 48 41 42 41 39 41
43 37 38 40 50 59 67 67 69 73 76 80 88 95 99 96 91 92 90 84 81 79 78 76 74 74 73 71 67 64 61 56 49 47 48 49 49 46 46 42 42 45 49
41 36 36 42 58 72 73 71 70 74 78 82 89 94 95 93 93 94 89 85 82 83 83 80 80 80 74 70 66 63 56 53 51 48 49 48 53 56 62 63 62 58 58
40 34 38 49 68 78 78 74 74 79 81 88 89 92 92 93 93 92 86 83 88 91 85 82 84 76 70 72 71 70 67 63 61 66 65 64 66 69 70 69 65 57 54
34 34 39 53 76 82 82 76 77 84 88 90 92 92 89 85 91 87 89 86 90 86 83 82 80 79 81 82 83 79 78 74 75 75 73 71 69 66 68 66 65 62 62
33 32 38 54 72 81 84 87 91 93 95 95 92 88 84 85 87 85 87 87 87 86 87 88 86 86 87 86 85 86 89 88 87 86 78 76 73 73 73 74 75 72 73
32 32 37 49 62 76 93 90 95 95 95 94 93 88 87 85 85 88 86 88 87 89 90 90 92 92 91 90 86 81 81 82 86 91 89 82 83 84 82 82 79 80 78
34 29 33 42 52 63 73 91 93 92 94 91 91 88 91 90 88 86 90 90 89 90 91 93 91 87 88 83 76 75 74 73 73 73 72 76 81 83 83 85 88 90 86
32 26 29 36 45 52 64 86 96 98 96 92 90 89 89 88 89 88 88 89 86 84 91 84 77 72 72 72 71 75 77 77 75 74 72 74 83 85 86 89 91 92 96